Weather History for Inverness, FL

Change the Weather History Date:

Tuesday, August 20, 2013

  Actual Average (KOCF) Record (KOCF)
Temperature  
Mean Temperature 83 °F -  
Max Temperature 93 °F 88 °F 96 °F (2007)
Min Temperature 71 °F 69 °F 69 °F (2003)
Cooling Degree Days 18    
Growing Degree Days 33 (Base 50)    
Moisture  
Dew Point 72 °F    
Average Humidity 81    
Maximum Humidity 100    
Minimum Humidity 49    
Precipitation  
Precipitation 0.12 in - - ()
Sea Level Pressure  
Sea Level Pressure 30.07 in    
Wind  
Wind Speed 3 mph (East)    
Max Wind Speed 13 mph    
Max Gust Speed 23 mph    
Visibility 7 miles    
Events Rain , Thunderstorm    
Averages and records for this station are not official NWS values.
T = Trace of Precipitation, MM = Missing Value Source: NWS Daily Summary

Daily Weather History Graph

Daily Weather History Graph

Search for Another Location

Airport:

Trip Planner

Search our weather history database for the weather conditions in past years. The results will help you decide how hot, cold, wet, or windy it might be!

Date:

Astronomy

Aug. 20, 2013 Rise Set
Actual Time 7:01 AM EDT 8:03 PM EDT
Civil Twilight 6:36 AM EDT 8:28 PM EDT
Nautical Twilight 6:07 AM EDT 8:57 PM EDT
Astronomical Twilight 5:37 AM EDT 9:26 PM EDT
Moon 7:39 PM EDT 6:27 AM EDT
Length of Visible Light 13h 51m
Length of Day
13h 02m
Full, 100% of the Moon is Illuminated
Aug 20
Full
Aug 20
Full
Aug 28
Last Quarter
Sep 5
New
Sep 12
First Quarter

Hourly Weather History & Observations

Time (EDT) Temp. Heat Index Dew Point Humidity Pressure Visibility Wind Dir Wind Speed Gust Speed Precip Events Conditions
12:15 AM 77.0 °F - 71.6 °F 83% 30.07 in 10.0 mi North 3.5 mph - N/A Thunderstorm Clear
12:35 AM 77.0 °F - 71.6 °F 83% 30.07 in 10.0 mi North 3.5 mph - N/A   Clear
12:55 AM 77.0 °F - 71.6 °F 83% 30.07 in 10.0 mi North 3.5 mph - N/A   Clear
1:15 AM 77.0 °F - 71.6 °F 83% 30.06 in 10.0 mi North 3.5 mph - N/A   Clear
1:35 AM 77.0 °F - 71.6 °F 83% 30.06 in 7.0 mi NE 4.6 mph - N/A   Clear
1:55 AM 75.2 °F - 71.6 °F 89% 30.05 in 7.0 mi Calm Calm - N/A   Clear
2:15 AM 75.2 °F - 71.6 °F 89% 30.04 in 7.0 mi Calm Calm - N/A   Clear
2:35 AM 73.4 °F - 71.6 °F 94% 30.04 in 7.0 mi Calm Calm - N/A   Clear
2:55 AM 73.4 °F - 71.6 °F 94% 30.04 in 7.0 mi Calm Calm - N/A   Clear
3:15 AM 73.4 °F - 71.6 °F 94% 30.04 in 10.0 mi Calm Calm - N/A   Clear
3:35 AM 73.4 °F - 71.6 °F 94% 30.04 in 7.0 mi Calm Calm - N/A   Clear
3:55 AM 73.4 °F - 71.6 °F 94% 30.05 in 7.0 mi Calm Calm - N/A   Clear
4:15 AM 73.4 °F - 71.6 °F 94% 30.04 in 10.0 mi Calm Calm - N/A   Clear
4:35 AM 73.4 °F - 71.6 °F 94% 30.03 in 7.0 mi Calm Calm - N/A   Clear
4:55 AM 73.4 °F - 71.6 °F 94% 30.03 in 7.0 mi Calm Calm - N/A   Clear
5:15 AM 73.4 °F - 71.6 °F 94% 30.03 in 10.0 mi Calm Calm - N/A   Clear
5:35 AM 73.4 °F - 71.6 °F 94% 30.03 in 10.0 mi Calm Calm - N/A   Clear
5:55 AM 73.4 °F - 71.6 °F 94% 30.03 in 7.0 mi Calm Calm - N/A   Clear
6:15 AM 73.4 °F - 71.6 °F 94% 30.03 in 10.0 mi Calm Calm - N/A   Clear
6:35 AM 73.4 °F - 71.6 °F 94% 30.03 in 10.0 mi Calm Calm - N/A   Clear
6:55 AM 73.4 °F - 71.6 °F 94% 30.04 in 7.0 mi Calm Calm - N/A   Clear
7:15 AM 73.4 °F - 71.6 °F 94% 30.04 in 7.0 mi Calm Calm - N/A   Clear
7:35 AM 73.4 °F - 73.4 °F 100% 30.05 in 5.0 mi Calm Calm - N/A   Clear
7:55 AM 73.4 °F - 73.4 °F 100% 30.05 in 5.0 mi Calm Calm - N/A   Clear
8:15 AM 77.0 °F - 75.2 °F 94% 30.05 in 7.0 mi Calm Calm - N/A   Clear
8:35 AM 78.8 °F - 75.2 °F 89% 30.06 in 5.0 mi Calm Calm - N/A   Clear
8:55 AM 80.6 °F 87.1 °F 77.0 °F 89% 30.07 in 5.0 mi SE 3.5 mph - N/A   Clear
9:15 AM 82.4 °F 90.9 °F 77.0 °F 84% 30.07 in 5.0 mi SE 4.6 mph - N/A   Haze
9:35 AM 82.4 °F 90.9 °F 77.0 °F 84% 30.09 in 7.0 mi SE 8.1 mph - N/A   Scattered Clouds
9:55 AM 84.2 °F 90.9 °F 73.4 °F 70% 30.09 in 4.0 mi ESE 6.9 mph - N/A   Haze
10:15 AM 84.2 °F 92.3 °F 75.2 °F 74% 30.10 in 7.0 mi SE 8.1 mph - N/A   Scattered Clouds
10:35 AM 86.0 °F 93.4 °F 73.4 °F 66% 30.10 in 7.0 mi ESE 6.9 mph - N/A   Scattered Clouds
10:55 AM 87.8 °F 97.6 °F 75.2 °F 66% 30.11 in 7.0 mi ESE 6.9 mph - N/A   Scattered Clouds
11:15 AM 87.8 °F 95.6 °F 73.4 °F 62% 30.10 in 7.0 mi SSE 5.8 mph - N/A   Scattered Clouds
11:35 AM 87.8 °F 95.6 °F 73.4 °F 62% 30.10 in 7.0 mi SSE 4.6 mph - N/A   Mostly Cloudy
11:55 AM 89.6 °F 98.2 °F 73.4 °F 59% 30.10 in 4.0 mi ESE 4.6 mph - N/A   Haze
12:15 PM 89.6 °F 96.2 °F 71.6 °F 55% 30.10 in 7.0 mi East 5.8 mph - N/A   Scattered Clouds
12:35 PM 89.6 °F 96.2 °F 71.6 °F 55% 30.10 in 7.0 mi East 3.5 mph - N/A   Scattered Clouds
12:55 PM 91.4 °F 98.4 °F 71.6 °F 52% 30.09 in 10.0 mi ESE 5.8 mph - N/A   Scattered Clouds
1:15 PM 91.4 °F 96.8 °F 69.8 °F 49% 30.09 in 10.0 mi ESE 6.9 mph - N/A   Scattered Clouds
1:35 PM 91.4 °F 98.4 °F 71.6 °F 52% 30.08 in 7.0 mi East 4.6 mph - N/A   Scattered Clouds
1:55 PM 91.4 °F 98.4 °F 71.6 °F 52% 30.08 in 7.0 mi East 4.6 mph - N/A   Scattered Clouds
2:15 PM 91.4 °F 98.4 °F 71.6 °F 52% 30.07 in 7.0 mi East 8.1 mph - N/A   Scattered Clouds
2:35 PM 91.4 °F 98.4 °F 71.6 °F 52% 30.06 in 7.0 mi Calm Calm - N/A   Scattered Clouds
2:55 PM 91.4 °F 98.4 °F 71.6 °F 52% 30.05 in 7.0 mi SE 4.6 mph - N/A   Scattered Clouds
3:15 PM 91.4 °F 98.4 °F 71.6 °F 52% 30.03 in 7.0 mi SE 3.5 mph - N/A   Mostly Cloudy
3:35 PM 93.2 °F 100.5 °F 71.6 °F 49% 30.03 in 10.0 mi ENE 9.2 mph - N/A   Mostly Cloudy
3:55 PM 91.4 °F 96.8 °F 69.8 °F 49% 30.02 in 7.0 mi East 4.6 mph - N/A   Scattered Clouds
4:15 PM 93.2 °F 100.5 °F 71.6 °F 49% 30.01 in 7.0 mi East 5.8 mph - N/A   Scattered Clouds
4:35 PM 91.4 °F 96.8 °F 69.8 °F 49% 30.00 in 7.0 mi ESE 5.8 mph - N/A Thunderstorm Mostly Cloudy
4:55 PM 87.8 °F 93.8 °F 71.6 °F 58% 30.01 in 10.0 mi SSW 8.1 mph - N/A Thunderstorm Thunderstorm
5:15 PM 82.4 °F 87.2 °F 71.6 °F 70% 30.01 in 7.0 mi Calm Calm - N/A Thunderstorm Thunderstorm
5:35 PM 77.0 °F - 71.6 °F 83% 30.03 in 7.0 mi SSW 12.7 mph 23.0 mph 0.01 in Rain , Thunderstorm Thunderstorms and Rain
5:55 PM 77.0 °F - 71.6 °F 83% 30.03 in 10.0 mi Calm Calm - 0.01 in Thunderstorm Thunderstorm
6:15 PM 77.0 °F - 71.6 °F 83% 30.04 in 10.0 mi Calm Calm - N/A Rain , Thunderstorm Light Thunderstorms and Rain
6:35 PM 77.0 °F - 73.4 °F 89% 30.04 in 10.0 mi NNE 3.5 mph - 0.02 in Rain , Thunderstorm Light Thunderstorms and Rain
6:55 PM 75.2 °F - 73.4 °F 94% 30.06 in 10.0 mi NNE 4.6 mph - 0.02 in Rain , Thunderstorm Light Thunderstorms and Rain
7:15 PM 75.2 °F - 73.4 °F 94% 30.07 in 7.0 mi Calm Calm - N/A Thunderstorm Scattered Clouds
7:35 PM 75.2 °F - 73.4 °F 94% 30.07 in 5.0 mi Calm Calm - N/A Thunderstorm Mostly Cloudy
7:55 PM 75.2 °F - 73.4 °F 94% 30.09 in 4.0 mi West 3.5 mph - 0.03 in Rain Rain
8:15 PM 75.2 °F - 73.4 °F 94% 30.08 in 7.0 mi Calm Calm - 0.02 in Thunderstorm Mostly Cloudy
8:35 PM 75.2 °F - 73.4 °F 94% 30.10 in 7.0 mi Calm Calm - 0.03 in   Mostly Cloudy
8:55 PM 75.2 °F - 73.4 °F 94% 30.10 in 7.0 mi NNW 3.5 mph - 0.03 in   Overcast
9:15 PM 75.2 °F - 73.4 °F 94% 30.11 in 5.0 mi Calm Calm - 0.01 in Rain Light Rain
9:35 PM 75.2 °F - 73.4 °F 94% 30.11 in 7.0 mi North 6.9 mph - 0.02 in   Scattered Clouds
9:55 PM 75.2 °F - 73.4 °F 94% 30.11 in 5.0 mi NNE 6.9 mph - 0.03 in   Scattered Clouds
10:15 PM 73.4 °F - 73.4 °F 100% 30.11 in 7.0 mi NNE 4.6 mph - N/A   Scattered Clouds
10:35 PM 73.4 °F - 73.4 °F 100% 30.12 in 7.0 mi NE 6.9 mph - N/A   Scattered Clouds
10:55 PM 73.4 °F - 73.4 °F 100% 30.13 in 7.0 mi NE 6.9 mph - N/A   Scattered Clouds
11:15 PM 73.4 °F - 71.6 °F 94% 30.13 in 7.0 mi NNE 4.6 mph - N/A   Scattered Clouds
11:35 PM 73.4 °F - 71.6 °F 94% 30.13 in 7.0 mi NNE 3.5 mph - N/A   Clear
11:55 PM 71.6 °F - 71.6 °F 100% 30.12 in 10.0 mi NE 3.5 mph - N/A   Clear